Time,TemperatureF,DewpointF,PressureIn,WindDirection,WindDirectionDegrees,WindSpeedMPH,WindSpeedGustMPH,Humidity,HourlyPrecipIn,Conditions,Clouds,dailyrainin,SoftwareType,DateUTC
2013-01-11 00:03:00,40.0,28.0,-100.00,East,90,0.0,0.0,62,0.00,,,-99.99,,2013-01-11 05:03:00,
2013-01-11 00:13:00,40.0,28.0,-100.00,ESE,110,0.0,0.0,61,0.00,,,-99.99,,2013-01-11 05:13:00,
2013-01-11 00:22:00,40.0,28.0,-100.00,East,80,0.0,0.0,60,0.00,,,-99.99,,2013-01-11 05:22:00,
2013-01-11 00:33:00,40.0,27.0,-100.00,East,90,0.0,0.0,59,0.00,,,-99.99,,2013-01-11 05:33:00,
2013-01-11 00:43:00,40.0,27.0,-100.00,East,85,0.0,0.0,59,0.00,,,-99.99,,2013-01-11 05:43:00,
2013-01-11 00:52:00,40.0,27.0,-100.00,East,90,0.0,0.0,59,0.00,,,-99.99,,2013-01-11 05:52:00,
2013-01-11 01:03:00,40.0,28.0,-100.00,ESE,105,0.0,0.0,59,0.00,,,-99.99,,2013-01-11 06:03:00,
2013-01-11 01:12:00,41.0,28.0,-100.00,East,90,0.0,0.0,59,0.00,,,-99.99,,2013-01-11 06:12:00,
2013-01-11 01:22:00,41.0,28.0,-100.00,East,100,0.0,0.0,58,0.00,,,-99.99,,2013-01-11 06:22:00,
2013-01-11 01:32:00,41.0,28.0,-100.00,East,90,0.0,0.0,58,0.00,,,-99.99,,2013-01-11 06:32:00,
2013-01-11 01:42:00,41.0,28.0,-100.00,East,100,0.0,0.0,58,0.00,,,-99.99,,2013-01-11 06:42:00,
2013-01-11 01:52:00,41.0,28.0,-100.00,East,95,0.0,0.0,57,0.00,,,-99.99,,2013-01-11 06:52:00,
2013-01-11 02:02:00,42.0,28.0,-100.00,East,85,0.0,0.0,57,0.00,,,-99.99,,2013-01-11 07:02:00,
2013-01-11 02:12:00,42.0,28.0,-100.00,East,80,0.0,0.0,56,0.00,,,-99.99,,2013-01-11 07:12:00,
2013-01-11 02:22:00,42.0,28.0,-100.00,East,95,0.0,0.0,56,0.00,,,-99.99,,2013-01-11 07:22:00,
2013-01-11 02:32:00,42.0,28.0,-100.00,East,90,0.0,0.0,56,0.00,,,-99.99,,2013-01-11 07:32:00,
2013-01-11 02:42:00,42.0,28.0,-100.00,SE,125,0.0,0.0,56,0.00,,,-99.99,,2013-01-11 07:42:00,
2013-01-11 02:52:00,42.0,28.0,-100.00,SE,130,0.0,0.0,56,0.00,,,-99.99,,2013-01-11 07:52:00,
2013-01-11 03:02:00,42.0,28.0,-100.00,South,170,0.0,0.0,56,0.00,,,-99.99,,2013-01-11 08:02:00,
2013-01-11 03:12:00,42.0,28.0,-100.00,East,95,0.0,0.0,56,0.00,,,-99.99,,2013-01-11 08:12:00,
2013-01-11 03:22:00,42.0,28.0,-100.00,SE,130,0.0,0.0,57,0.00,,,-99.99,,2013-01-11 08:22:00,
2013-01-11 03:32:00,42.0,28.0,-100.00,ESE,105,0.0,0.0,57,0.00,,,-99.99,,2013-01-11 08:32:00,
2013-01-11 03:42:00,43.0,29.0,-100.00,East,80,0.0,0.0,57,0.00,,,-99.99,,2013-01-11 08:42:00,
2013-01-11 03:52:00,43.0,29.0,-100.00,ESE,105,0.0,0.0,57,0.00,,,-99.99,,2013-01-11 08:52:00,
2013-01-11 04:02:00,43.0,29.0,-100.00,East,100,0.0,0.0,57,0.00,,,-99.99,,2013-01-11 09:02:00,
2013-01-11 04:12:00,43.0,29.0,-100.00,ESE,115,0.0,0.0,57,0.00,,,-99.99,,2013-01-11 09:12:00,
2013-01-11 04:23:00,43.0,29.0,-100.00,East,95,0.0,0.0,57,0.00,,,-99.99,,2013-01-11 09:23:00,
2013-01-11 04:32:00,44.0,30.0,-100.00,East,95,0.0,0.0,57,0.00,,,-99.99,,2013-01-11 09:32:00,
2013-01-11 04:42:00,44.0,30.0,-100.00,East,95,0.0,0.0,58,0.00,,,-99.99,,2013-01-11 09:42:00,
2013-01-11 04:52:00,44.0,30.0,-100.00,East,95,0.0,0.0,58,0.00,,,-99.99,,2013-01-11 09:52:00,
2013-01-11 05:02:00,44.0,31.0,-100.00,SSE,165,0.0,0.0,58,0.00,,,-99.99,,2013-01-11 10:02:00,
2013-01-11 05:12:00,44.0,31.0,-100.00,East,100,0.0,0.0,59,0.00,,,-99.99,,2013-01-11 10:12:00,
2013-01-11 05:22:00,44.0,31.0,-100.00,SE,140,0.0,0.0,59,0.00,,,-99.99,,2013-01-11 10:22:00,
2013-01-11 05:32:00,43.0,33.0,-100.00,SSE,155,0.0,0.0,67,0.00,,,-99.99,,2013-01-11 10:32:00,
2013-01-11 05:42:00,43.0,34.0,-100.00,SE,130,0.0,0.0,71,0.00,,,-99.99,,2013-01-11 10:42:00,
2013-01-11 05:52:00,43.0,35.0,-100.00,SE,135,0.0,0.0,71,0.00,,,-99.99,,2013-01-11 10:52:00,
2013-01-11 06:03:00,44.0,35.0,-100.00,SSE,165,0.0,0.0,70,0.00,,,-99.99,,2013-01-11 11:03:00,
2013-01-11 06:12:00,44.0,35.0,-100.00,SE,140,0.0,0.0,69,0.00,,,-99.99,,2013-01-11 11:12:00,
2013-01-11 06:22:00,45.0,36.0,-100.00,SE,145,0.0,0.0,69,0.00,,,-99.99,,2013-01-11 11:22:00,
2013-01-11 06:33:00,44.0,37.0,-100.00,SSE,155,0.0,0.0,75,0.00,,,-99.99,,2013-01-11 11:33:00,
2013-01-11 06:42:00,44.0,38.0,-100.00,SE,135,0.0,0.0,79,0.00,,,-99.99,,2013-01-11 11:42:00,
2013-01-11 06:53:00,44.0,39.0,-100.00,SE,135,0.0,0.0,83,0.00,,,-99.99,,2013-01-11 11:53:00,
2013-01-11 07:03:00,44.0,40.0,-100.00,SE,145,0.0,0.0,86,0.00,,,-99.99,,2013-01-11 12:03:00,
2013-01-11 07:12:00,44.0,41.0,-100.00,SE,140,0.0,0.0,89,0.00,,,-99.99,,2013-01-11 12:12:00,
2013-01-11 07:22:00,44.0,42.0,-100.00,SE,140,0.0,1.0,91,0.00,,,-99.99,,2013-01-11 12:22:00,
2013-01-11 07:33:00,44.0,42.0,-100.00,SE,145,0.0,0.0,92,0.00,,,-99.99,,2013-01-11 12:33:00,
2013-01-11 07:42:00,44.0,42.0,-100.00,SE,130,0.0,0.0,93,0.00,,,-99.99,,2013-01-11 12:42:00,
2013-01-11 07:52:00,45.0,43.0,-100.00,SE,135,0.0,0.0,93,0.00,,,-99.99,,2013-01-11 12:52:00,
2013-01-11 08:03:00,45.0,43.0,-100.00,SE,135,0.0,0.0,93,0.00,,,-99.99,,2013-01-11 13:03:00,
2013-01-11 08:13:00,45.0,43.0,-100.00,ESE,120,0.0,0.0,93,0.00,,,-99.99,,2013-01-11 13:13:00,
2013-01-11 08:22:00,45.0,43.0,-100.00,SE,145,0.0,0.0,92,0.00,,,-99.99,,2013-01-11 13:22:00,
2013-01-11 08:33:00,46.0,44.0,-100.00,ESE,120,0.0,0.0,92,0.00,,,-99.99,,2013-01-11 13:33:00,
2013-01-11 08:42:00,46.0,44.0,-100.00,SE,135,0.0,0.0,92,0.00,,,-99.99,,2013-01-11 13:42:00,
2013-01-11 08:52:00,46.0,44.0,-100.00,SSE,165,0.0,0.0,91,0.00,,,-99.99,,2013-01-11 13:52:00,
2013-01-11 09:03:00,46.0,44.0,-100.00,SSE,155,0.0,0.0,91,0.00,,,-99.99,,2013-01-11 14:03:00,
2013-01-11 09:12:00,46.0,44.0,-100.00,SSE,165,0.0,0.0,91,0.00,,,-99.99,,2013-01-11 14:12:00,
2013-01-11 09:23:00,46.0,44.0,-100.00,SSE,165,0.0,0.0,92,0.00,,,-99.99,,2013-01-11 14:23:00,
2013-01-11 09:33:00,45.0,44.0,-100.00,East,100,0.0,0.0,94,0.00,,,-99.99,,2013-01-11 14:33:00,
2013-01-11 09:43:00,46.0,44.0,-100.00,SE,145,0.0,0.0,95,0.00,,,-99.99,,2013-01-11 14:43:00,
2013-01-11 09:53:00,46.0,45.0,-100.00,SSE,155,0.0,0.0,96,0.00,,,-99.99,,2013-01-11 14:53:00,
2013-01-11 10:03:00,46.0,45.0,-100.00,ESE,110,0.0,0.0,96,0.00,,,-99.99,,2013-01-11 15:03:00,
2013-01-11 10:13:00,46.0,45.0,-100.00,ESE,110,0.0,0.0,96,0.00,,,-99.99,,2013-01-11 15:13:00,
2013-01-11 10:23:00,46.0,45.0,-100.00,SE,125,0.0,0.0,97,0.00,,,-99.99,,2013-01-11 15:23:00,
2013-01-11 10:33:00,46.0,46.0,-100.00,South,170,0.0,0.0,97,0.00,,,-99.99,,2013-01-11 15:33:00,
2013-01-11 10:43:00,46.0,46.0,-100.00,ESE,115,0.0,0.0,98,0.00,,,-99.99,,2013-01-11 15:43:00,
2013-01-11 10:53:00,46.0,46.0,-100.00,SSE,155,0.0,0.0,98,0.00,,,-99.99,,2013-01-11 15:53:00,
2013-01-11 11:03:00,46.0,46.0,-100.00,SE,145,0.0,0.0,98,0.00,,,-99.99,,2013-01-11 16:03:00,
2013-01-11 11:12:00,46.0,46.0,-100.00,SSE,150,0.0,0.0,98,0.00,,,-99.99,,2013-01-11 16:12:00,
2013-01-11 11:22:00,47.0,46.0,-100.00,SE,130,0.0,0.0,98,0.00,,,-99.99,,2013-01-11 16:22:00,
2013-01-11 11:33:00,47.0,46.0,-100.00,SE,135,0.0,0.0,98,0.00,,,-99.99,,2013-01-11 16:33:00,
2013-01-11 11:42:00,47.0,47.0,-100.00,SE,145,0.0,0.0,98,0.00,,,-99.99,,2013-01-11 16:42:00,
2013-01-11 11:53:00,47.0,47.0,-100.00,South,170,0.0,0.0,98,0.00,,,-99.99,,2013-01-11 16:53:00,
2013-01-11 12:03:00,47.0,47.0,-100.00,SE,140,0.0,0.0,98,0.00,,,-99.99,,2013-01-11 17:03:00,
2013-01-11 12:12:00,47.0,47.0,-100.00,SE,140,0.0,0.0,98,0.00,,,-99.99,,2013-01-11 17:12:00,
2013-01-11 12:22:00,48.0,48.0,-100.00,SSE,155,0.0,1.0,98,0.00,,,-99.99,,2013-01-11 17:22:00,
2013-01-11 12:33:00,48.0,48.0,-100.00,SSE,155,0.0,4.0,98,0.00,,,-99.99,,2013-01-11 17:33:00,
2013-01-11 12:43:00,48.0,48.0,-100.00,SE,135,0.0,0.0,98,0.00,,,-99.99,,2013-01-11 17:43:00,
2013-01-11 12:53:00,49.0,48.0,-100.00,SE,140,0.0,3.0,98,0.00,,,-99.99,,2013-01-11 17:53:00,
2013-01-11 13:04:00,50.0,50.0,-100.00,SSE,155,0.0,9.0,98,0.00,,,-99.99,,2013-01-11 18:04:00,
2013-01-11 13:13:00,51.0,50.0,-100.00,SSE,150,0.0,10.0,98,0.00,,,-99.99,,2013-01-11 18:13:00,
2013-01-11 13:23:00,51.0,51.0,-100.00,South,180,0.0,2.0,98,0.00,,,-99.99,,2013-01-11 18:23:00,
2013-01-11 13:33:00,51.0,51.0,-100.00,South,170,0.0,5.0,98,0.00,,,-99.99,,2013-01-11 18:33:00,
2013-01-11 13:43:00,52.0,51.0,-100.00,SSE,160,0.0,14.0,98,0.00,,,-99.99,,2013-01-11 18:43:00,
2013-01-11 13:53:00,52.0,52.0,-100.00,South,175,0.0,4.0,98,0.00,,,-99.99,,2013-01-11 18:53:00,
2013-01-11 14:03:00,52.0,52.0,-100.00,South,170,0.0,2.0,98,0.00,,,-99.99,,2013-01-11 19:03:00,
2013-01-11 14:12:00,52.0,52.0,-100.00,South,170,0.0,0.0,98,0.00,,,-99.99,,2013-01-11 19:12:00,
2013-01-11 14:22:00,52.0,52.0,-100.00,SSE,160,0.0,1.0,98,0.00,,,-99.99,,2013-01-11 19:22:00,
2013-01-11 14:33:00,53.0,52.0,-100.00,South,185,0.0,0.0,98,0.00,,,-99.99,,2013-01-11 19:33:00,
2013-01-11 14:43:00,53.0,52.0,-100.00,SSE,160,0.0,0.0,98,0.00,,,-99.99,,2013-01-11 19:43:00,
2013-01-11 14:53:00,53.0,52.0,-100.00,SSE,150,0.0,0.0,98,0.00,,,-99.99,,2013-01-11 19:53:00,
2013-01-11 15:03:00,53.0,52.0,-100.00,SSE,160,0.0,0.0,98,0.00,,,-99.99,,2013-01-11 20:03:00,
2013-01-11 15:12:00,53.0,53.0,-100.00,South,190,0.0,0.0,97,0.00,,,-99.99,,2013-01-11 20:12:00,
2013-01-11 15:22:00,53.0,53.0,-100.00,SSE,160,0.0,0.0,97,0.00,,,-99.99,,2013-01-11 20:22:00,
2013-01-11 15:33:00,54.0,53.0,-100.00,South,185,0.0,0.0,97,0.00,,,-99.99,,2013-01-11 20:33:00,
2013-01-11 15:43:00,54.0,53.0,-100.00,South,175,0.0,0.0,97,0.00,,,-99.99,,2013-01-11 20:43:00,
2013-01-11 15:52:00,54.0,54.0,-100.00,South,190,0.0,0.0,97,0.00,,,-99.99,,2013-01-11 20:52:00,
2013-01-11 16:03:00,55.0,54.0,-100.00,SSE,165,0.0,0.0,96,0.00,,,-99.99,,2013-01-11 21:03:00,
2013-01-11 16:12:00,55.0,54.0,-100.00,SSW,195,0.0,0.0,95,0.00,,,-99.99,,2013-01-11 21:12:00,
2013-01-11 16:23:00,55.0,54.0,-100.00,South,180,0.0,0.0,94,0.00,,,-99.99,,2013-01-11 21:23:00,
2013-01-11 16:33:00,56.0,54.0,-100.00,SSW,205,0.0,0.0,93,0.00,,,-99.99,,2013-01-11 21:33:00,
2013-01-11 16:42:00,56.0,53.0,-100.00,SSE,165,0.0,0.0,92,0.00,,,-99.99,,2013-01-11 21:42:00,
2013-01-11 16:52:00,55.0,53.0,-100.00,South,175,0.0,0.0,91,0.00,,,-99.99,,2013-01-11 21:52:00,
2013-01-11 17:03:00,55.0,53.0,-100.00,South,175,0.0,0.0,91,0.00,,,-99.99,,2013-01-11 22:03:00,
2013-01-11 17:12:00,55.0,53.0,-100.00,South,175,0.0,0.0,91,0.00,,,-99.99,,2013-01-11 22:12:00,
2013-01-11 17:22:00,55.0,52.0,-100.00,South,175,0.0,0.0,90,0.00,,,-99.99,,2013-01-11 22:22:00,
2013-01-11 17:33:00,55.0,52.0,-100.00,South,185,0.0,0.0,90,0.00,,,-99.99,,2013-01-11 22:33:00,
2013-01-11 17:42:00,55.0,52.0,-100.00,South,185,0.0,0.0,90,0.00,,,-99.99,,2013-01-11 22:42:00,
2013-01-11 17:52:00,55.0,52.0,-100.00,SSE,165,0.0,0.0,90,0.00,,,-99.99,,2013-01-11 22:52:00,
2013-01-11 18:02:00,55.0,52.0,-100.00,SSE,155,0.0,0.0,89,0.00,,,-99.99,,2013-01-11 23:02:00,
2013-01-11 18:13:00,55.0,52.0,-100.00,SSE,160,0.0,0.0,89,0.00,,,-99.99,,2013-01-11 23:13:00,
2013-01-11 18:23:00,54.0,51.0,-100.00,SSE,160,0.0,0.0,89,0.00,,,-99.99,,2013-01-11 23:23:00,
2013-01-11 18:33:00,54.0,51.0,-100.00,South,170,0.0,0.0,90,0.00,,,-99.99,,2013-01-11 23:33:00,
2013-01-11 18:43:00,54.0,51.0,-100.00,SSE,165,0.0,0.0,91,0.00,,,-99.99,,2013-01-11 23:43:00,
2013-01-11 18:53:00,54.0,52.0,-100.00,SSE,160,0.0,0.0,92,0.00,,,-99.99,,2013-01-11 23:53:00,
2013-01-11 19:03:00,54.0,52.0,-100.00,SSE,160,0.0,0.0,92,0.00,,,-99.99,,2013-01-12 00:03:00,
2013-01-11 19:12:00,54.0,52.0,-100.00,SSE,165,0.0,0.0,92,0.00,,,-99.99,,2013-01-12 00:12:00,
2013-01-11 19:23:00,54.0,52.0,-100.00,SSE,160,0.0,0.0,93,0.00,,,-99.99,,2013-01-12 00:23:00,
2013-01-11 19:33:00,54.0,52.0,-100.00,South,170,0.0,0.0,93,0.00,,,-99.99,,2013-01-12 00:33:00,
2013-01-11 19:43:00,54.0,52.0,-100.00,SSE,160,0.0,0.0,94,0.00,,,-99.99,,2013-01-12 00:43:00,
2013-01-11 19:52:00,53.0,52.0,-100.00,South,185,0.0,0.0,94,0.00,,,-99.99,,2013-01-12 00:52:00,
2013-01-11 20:03:00,53.0,52.0,-100.00,South,170,0.0,0.0,94,0.00,,,-99.99,,2013-01-12 01:03:00,
2013-01-11 20:12:00,53.0,52.0,-100.00,South,170,0.0,0.0,94,0.00,,,-99.99,,2013-01-12 01:12:00,
2013-01-11 20:22:00,53.0,51.0,-100.00,SSE,165,0.0,0.0,94,0.00,,,-99.99,,2013-01-12 01:22:00,
2013-01-11 20:33:00,52.0,51.0,-100.00,SSE,165,0.0,0.0,94,0.00,,,-99.99,,2013-01-12 01:33:00,
2013-01-11 20:43:00,52.0,51.0,-100.00,South,180,0.0,0.0,94,0.00,,,-99.99,,2013-01-12 01:43:00,
2013-01-11 20:53:00,52.0,51.0,-100.00,SSE,155,0.0,0.0,94,0.00,,,-99.99,,2013-01-12 01:53:00,
2013-01-11 21:02:00,51.0,50.0,-100.00,South,175,0.0,0.0,95,0.00,,,-99.99,,2013-01-12 02:02:00,
2013-01-11 21:12:00,51.0,50.0,-100.00,SSE,160,0.0,0.0,95,0.00,,,-99.99,,2013-01-12 02:12:00,
2013-01-11 21:22:00,51.0,50.0,-100.00,South,175,0.0,0.0,95,0.00,,,-99.99,,2013-01-12 02:22:00,
2013-01-11 21:33:00,51.0,50.0,-100.00,South,180,0.0,0.0,95,0.00,,,-99.99,,2013-01-12 02:33:00,
2013-01-11 21:43:00,51.0,50.0,-100.00,SSE,160,0.0,0.0,95,0.00,,,-99.99,,2013-01-12 02:43:00,
2013-01-11 21:53:00,51.0,50.0,-100.00,South,190,0.0,0.0,95,0.00,,,-99.99,,2013-01-12 02:53:00,
2013-01-11 22:03:00,51.0,50.0,-100.00,SSE,160,0.0,0.0,95,0.00,,,-99.99,,2013-01-12 03:03:00,
2013-01-11 22:12:00,51.0,49.0,-100.00,SSE,165,0.0,0.0,95,0.00,,,-99.99,,2013-01-12 03:12:00,
2013-01-11 22:22:00,51.0,49.0,-100.00,SSE,165,0.0,0.0,95,0.00,,,-99.99,,2013-01-12 03:22:00,
2013-01-11 22:33:00,51.0,49.0,-100.00,SSE,160,0.0,0.0,95,0.00,,,-99.99,,2013-01-12 03:33:00,
2013-01-11 22:43:00,51.0,49.0,-100.00,SSE,165,0.0,0.0,95,0.00,,,-99.99,,2013-01-12 03:43:00,
2013-01-11 22:52:00,51.0,49.0,-100.00,SSE,155,0.0,0.0,95,0.00,,,-99.99,,2013-01-12 03:52:00,
2013-01-11 23:02:00,51.0,49.0,-100.00,SSE,155,0.0,0.0,95,0.00,,,-99.99,,2013-01-12 04:02:00,
2013-01-11 23:12:00,50.0,49.0,-100.00,SSE,160,0.0,0.0,95,0.00,,,-99.99,,2013-01-12 04:12:00,
2013-01-11 23:22:00,49.0,48.0,-100.00,SSE,160,0.0,0.0,95,0.00,,,-99.99,,2013-01-12 04:22:00,
2013-01-11 23:32:00,49.0,48.0,-100.00,SE,145,0.0,0.0,95,0.00,,,-99.99,,2013-01-12 04:32:00,
2013-01-11 23:42:00,49.0,48.0,-100.00,SSE,155,0.0,0.0,96,0.00,,,-99.99,,2013-01-12 04:42:00,
2013-01-11 23:52:00,49.0,48.0,-100.00,SSE,165,0.0,0.0,96,0.00,,,-99.99,,2013-01-12 04:52:00,